TimeMST,TemperatureF,Dew PointF,Humidity,Sea Level PressureIn,VisibilityMPH,Wind Direction,Wind SpeedMPH,Gust SpeedMPH,PrecipitationIn,Events,Conditions,WindDirDegrees,DateUTC
12:53 AM,19.0,14.0,81,30.42,10.0,SSW,3.5,-,N/A,,Clear,200,2013-12-15 07:53:00
1:53 AM,21.0,14.0,74,30.40,10.0,Calm,Calm,-,N/A,,Clear,0,2013-12-15 08:53:00
2:53 AM,19.0,12.9,77,30.38,10.0,Calm,Calm,-,N/A,,Clear,0,2013-12-15 09:53:00
3:53 AM,17.1,12.0,81,30.40,10.0,Calm,Calm,-,N/A,,Clear,0,2013-12-15 10:53:00
4:53 AM,19.0,12.9,77,30.41,10.0,NE,3.5,-,N/A,,Clear,40,2013-12-15 11:53:00
5:53 AM,16.0,10.9,81,30.45,10.0,Calm,Calm,-,N/A,,Clear,0,2013-12-15 12:53:00
6:53 AM,19.0,12.0,74,30.48,10.0,West,4.6,-,N/A,,Clear,280,2013-12-15 13:53:00
7:53 AM,21.9,12.0,66,30.48,10.0,Calm,Calm,-,N/A,,Clear,0,2013-12-15 14:53:00
8:53 AM,28.9,17.1,61,30.46,10.0,Variable,4.6,-,N/A,,Clear,0,2013-12-15 15:53:00
9:53 AM,37.0,16.0,42,30.42,10.0,North,6.9,-,N/A,,Clear,360,2013-12-15 16:53:00
10:53 AM,42.1,17.1,37,30.38,10.0,NW,3.5,-,N/A,,Clear,320,2013-12-15 17:53:00
11:53 AM,44.1,19.0,37,30.37,10.0,SSW,6.9,-,N/A,,Clear,210,2013-12-15 18:53:00
12:53 PM,50.0,21.0,32,30.32,10.0,North,8.1,-,N/A,,Clear,360,2013-12-15 19:53:00
1:53 PM,51.1,19.9,29,30.30,10.0,North,11.5,-,N/A,,Clear,360,2013-12-15 20:53:00
2:53 PM,51.1,19.0,28,30.31,10.0,North,4.6,-,N/A,,Clear,10,2013-12-15 21:53:00
3:53 PM,50.0,19.0,29,30.31,10.0,NNW,8.1,-,N/A,,Clear,340,2013-12-15 22:53:00
4:53 PM,45.0,19.0,36,30.35,10.0,North,5.8,-,N/A,,Clear,350,2013-12-15 23:53:00
5:53 PM,39.9,19.0,43,30.39,10.0,North,9.2,-,N/A,,Clear,10,2013-12-16 00:53:00
6:53 PM,36.0,19.0,50,30.41,10.0,North,3.5,-,N/A,,Clear,10,2013-12-16 01:53:00
7:53 PM,30.0,19.9,66,30.44,10.0,NE,5.8,-,N/A,,Clear,40,2013-12-16 02:53:00
8:53 PM,26.1,19.0,75,30.42,10.0,Calm,Calm,-,N/A,,Clear,0,2013-12-16 03:53:00
9:53 PM,26.1,19.0,75,30.40,10.0,Calm,Calm,-,N/A,,Clear,0,2013-12-16 04:53:00
10:53 PM,24.1,19.0,81,30.40,10.0,North,3.5,-,N/A,,Clear,10,2013-12-16 05:53:00
11:53 PM,23.0,18.0,81,30.40,10.0,Calm,Calm,-,N/A,,Clear,0,2013-12-16 06:53:00